Калласте

Эстония     58°39′44″N   27°09′18″E
темп.,
°C
ветер,
м/с
пор.,
м/с
влажн.,
%
обл.,
%
осадки,
мм/ч
давл.,
гПа
погр.,
м
9 мая, вс
вс900:00+4з712730 0.0 1013403
03:00+3з712810 0.0 1014330
06:00+2з69895 0.0 1016230
09:00+5з46735 0.0 1017142
12:00+7ююз3360100 0.0 101815
15:00+9ююз4453100 0.0 101822
18:00+9ююз335599 0.0 101815
21:00+8ю566578 0.0 101841
10 мая, пн
пн1000:00+7ююз6973100 0.0 101897
03:00+6ююв91490100 1.6 1018269
06:00+7ю7984100 0.1 101894
09:00+8ю798376 0.1 101866
12:00+10ю667992 0.0 101927
15:00+12ю66695 0.0 101920
18:00+13ю6669100 0.0 101918
21:00+12ю777853 0.0 102026
11 мая, вт
вт1100:00+10ю7987100 0.0 102253
03:00+9ю78905 0.0 102346
06:00+8ю81091100 0.0 102378
09:00+8ююв81185100 0.0 102381
12:00+10ююв8117312 0.0 102363
15:00+11ююв8106953 0.0 102353
18:00+11ююв810725 0.0 102350
21:00+10ююв787769 0.0 102341
12 мая, ср
ср1200:00+9ююв67866 0.0 102445
03:00+8ююв67915 0.0 102442
06:00+7ююв56925 0.0 102441
09:00+7ююв57885 0.0 102446
12:00+9ююв448141 0.0 102419
15:00+10ююв337724 0.0 102211
18:00+12св33690 0.0 102111
21:00+12вюв55790 0.0 102026
13 мая, чт
чт1300:00+11вюв67821 0.0 102043
03:00+9юв55945 0.0 102036
06:00+8ююв6897100 0.1 102059
09:00+7юв449415 0.1 102028
12:00+8с239130 0.0 101813
15:00+9св4487100 0.0 101522
18:00+11в669299 1.1 101236
21:00+10вюв5899100 3.0 101144